This is the latest recevied weather packets stored in our database for station/object PA3BWK. If no packets are shown the sender has not sent any weather packets the latest 10 day(s).
| Time | Temp. | Humidity | Pressure | Rain* | Wind** | Luminosity | Snow |
|---|---|---|---|---|---|---|---|
| 1777457935 | 16.11° C | 38% | 1027.6 hPa | 0 mm | - | 756 W/m² | - |
| 1777457874 | 16.11° C | 37% | 1027.8 hPa | 0 mm | - | 756 W/m² | - |
| 1777457814 | 16.11° C | 38% | 1027.7 hPa | 0 mm | - | 754 W/m² | - |
| 1777457754 | 16.11° C | 38% | 1027.8 hPa | 0 mm | - | 754 W/m² | - |
| 1777457694 | 16.11° C | 40% | 1027.8 hPa | 0 mm | - | 753 W/m² | - |
| 1777457636 | 16.11° C | 39% | 1027.7 hPa | 0 mm | - | 756 W/m² | - |
| 1777457575 | 16.11° C | 39% | 1027.8 hPa | 0 mm | - | 753 W/m² | - |
| 1777457514 | 16.11° C | 38% | 1027.8 hPa | 0 mm | - | 751 W/m² | - |
| 1777457453 | 16.11° C | 41% | 1027.9 hPa | 0 mm | - | 747 W/m² | - |
| 1777457395 | 16.11° C | 39% | 1027.9 hPa | 0 mm | - | 742 W/m² | - |
| 1777457335 | 16.11° C | 38% | 1027.8 hPa | 0 mm | - | 740 W/m² | - |
| 1777457274 | 16.11° C | 37% | 1027.8 hPa | 0 mm | - | 735 W/m² | - |
| 1777457213 | 16.11° C | 38% | 1028 hPa | 0 mm | - | 732 W/m² | - |
| 1777457154 | 16.11° C | 37% | 1027.9 hPa | 0 mm | - | 739 W/m² | - |
| 1777457094 | 16.11° C | 37% | 1027.9 hPa | 0 mm | - | 737 W/m² | - |
| 1777457035 | 16.11° C | 39% | 1027.9 hPa | 0 mm | - | 740 W/m² | - |
| 1777456974 | 16.11° C | 40% | 1027.9 hPa | 0 mm | - | 740 W/m² | - |
| 1777456914 | 16.11° C | 38% | 1027.9 hPa | 0 mm | - | 742 W/m² | - |
| 1777456853 | 16.11° C | 38% | 1027.9 hPa | 0 mm | - | 740 W/m² | - |
| 1777456794 | 16.11° C | 39% | 1027.9 hPa | 0 mm | - | 739 W/m² | - |
| 1777456735 | 16.11° C | 39% | 1027.8 hPa | 0 mm | - | 735 W/m² | - |
| 1777456674 | 16.11° C | 39% | 1027.9 hPa | 0 mm | - | 733 W/m² | - |
| 1777456615 | 16.11° C | 39% | 1027.9 hPa | 0 mm | - | 723 W/m² | - |
| 1777456554 | 16.11° C | 40% | 1027.9 hPa | 0 mm | - | 709 W/m² | - |
| 1777456493 | 16.11° C | 40% | 1027.8 hPa | 0 mm | - | 702 W/m² | - |
* Rain latest hour (hover to see other rain measurements)
** Current wind speed in m/s (hover to see current wind gust speed)